EW1931 Weather Reports


time (UTC)temp
F
wind
direction
speed
knots
gust
knots
rain 1hr
in
rain 24hr
in
rain mn
in
humidity
%
barometer
mb
20260904124510 51 22 6.1 7.8 0.00 0.00 0.00 68 1004.0
20260904123008 51 35 5.2 7.8 0.00 0.00 0.00 66 1004.0
20260904121550 52 38 6.1 8.7 0.00 0.00 0.00 66 1004.1
20260904120054 53 34 5.2 7.0 0.00 0.00 0.00 65 1004.2
20260904114531 54 40 5.2 7.8 0.00 0.00 0.00 63 1004.2
20260904113034 54 5 6.1 8.7 0.00 0.00 0.00 63 1004.3
20260904111522 54 13 7.8 11.3 0.00 0.00 0.00 63 1004.3
20260904110010 54 20 6.1 9.6 0.00 0.00 0.00 62 1004.6
20260904104612 54 17 6.1 9.6 0.00 0.00 0.00 61 1004.7
20260904103051 55 15 6.1 9.6 0.00 0.00 0.00 61 1004.9
20260904101551 55 26 5.2 9.6 0.00 0.00 0.00 59 1004.9
20260904100033 55 14 6.1 9.6 0.00 0.00 0.00 59 1005.0
20260904094533 55 360 7.0 9.6 0.00 0.00 0.00 58 1005.0
20260904093015 55 22 5.2 9.6 0.00 0.00 0.00 59 1005.0
20260904091515 52 30 6.1 8.7 0.00 0.00 0.00 64 1005.2
20260904090058 51 13 4.3 6.1 0.00 0.00 0.00 65 1005.3
20260904084557 52 40 4.3 7.8 0.00 0.00 0.00 64 1005.6
20260904083037 52 26 7.8 9.6 0.00 0.00 0.00 63 1005.9
20260904081534 53 11 7.8 10.4 0.00 0.00 0.00 62 1006.1
20260904080014 53 12 7.0 9.6 0.00 0.00 0.00 62 1006.3
20260904074512 53 25 7.0 8.7 0.00 0.00 0.00 61 1006.4
20260904073059 54 15 7.0 9.6 0.00 0.00 0.00 60 1006.4
20260904071555 53 38 8.7 11.3 0.00 0.00 0.00 61 1006.5
20260904070039 53 44 8.7 10.4 0.00 0.00 0.00 63 1006.5
20260904064534 53 35 7.0 8.7 0.00 0.00 0.00 62 1006.5
20260904063013 56 44 7.0 10.4 0.00 0.00 0.00 56 1006.6
20260904061524 58 41 7.8 9.6 0.00 0.00 0.00 53 1006.7
20260904054555 58 22 6.1 9.6 0.00 0.00 0.00 53 1006.8
20260904053037 59 5 6.1 9.6 0.00 0.00 0.00 52 1006.8
20260904051555 58 11 6.1 9.6 0.00 0.00 0.00 52 1006.9
20260904050024 58 25 7.0 9.6 0.00 0.00 0.00 53 1006.8
20260904044525 57 23 6.1 7.8 0.00 0.00 0.00 55 1007.0
20260904043024 56 343 5.2 8.7 0.00 0.00 0.00 55 1007.0
20260904041523 56 20 4.3 9.6 0.00 0.00 0.00 55 1007.2
20260904040025 57 351 7.0 9.6 0.00 0.00 0.00 54 1007.1
20260904034522 56 15 5.2 8.7 0.00 0.00 0.00 55 1007.2
20260904033020 55 5 6.1 7.8 0.00 0.00 0.00 56 1007.2
20260904031515 57 19 4.3 7.8 0.00 0.00 0.00 52 1007.1
20260904030055 60 24 6.1 8.7 0.00 0.00 0.00 47 1007.0
20260904024554 63 13 7.0 13.0 0.00 0.00 0.00 44 1006.8
20260904023037 63 350 11.3 14.8 0.00 0.00 0.00 45 1006.4
20260904021537 63 348 7.8 10.4 0.00 0.00 0.00 45 1006.5
20260904020015 65 337 7.0 8.7 0.00 0.00 0.00 43 1006.4
20260904014513 68 331 6.1 12.2 0.00 0.00 0.00 39 1006.4
20260904013055 71 330 9.6 13.0 0.00 0.00 0.00 36 1006.3
20260904011554 73 336 7.8 10.4 0.00 0.00 0.00 34 1006.3
20260904010045 74 333 9.6 13.9 0.00 0.00 0.00 33 1006.2
20260904004535 76 289 7.0 11.3 0.00 0.00 0.00 30 1006.2
20260904003025 76 283 8.7 13.0 0.00 0.00 0.00 29 1006.3
20260904001518 76 271 10.4 15.6 0.00 0.00 0.00 26 1006.1
20260904000059 77 246 13.9 19.1 0.00 0.00 0.00 25 1006.0
20260903234556 77 254 13.9 18.2 0.00 0.00 0.00 26 1005.9
20260903233041 77 275 13.0 20.9 0.00 0.04 0.00 26 1005.8
20260903231536 77 259 15.6 22.6 0.00 0.04 0.00 26 1005.7
20260903230022 78 223 18.2 22.6 0.00 0.04 0.00 25 1005.7
20260903224516 78 223 19.1 26.1 0.00 0.04 0.00 25 1005.5
20260903223059 78 246 19.1 26.1 0.00 0.04 0.00 25 1005.5
20260903221557 78 216 12.2 25.2 0.00 0.04 0.00 26 1005.4
20260903220049 78 229 16.5 23.5 0.00 0.04 0.00 27 1005.1
20260903214538 78 244 17.4 26.9 0.00 0.04 0.00 26 1005.0
20260903213020 77 237 19.1 27.8 0.00 0.04 0.00 27 1005.0
20260903211519 77 221 16.5 26.1 0.00 0.04 0.00 27 1004.9
20260903210001 77 239 18.2 24.3 0.00 0.04 0.00 27 1004.9
20260903204619 77 217 11.3 18.2 0.00 0.04 0.00 28 1004.9
20260903203040 75 238 13.0 21.7 0.00 0.04 0.00 29 1004.9
20260903201540 76 233 12.2 25.2 0.00 0.04 0.00 28 1004.9
20260903200022 75 250 14.8 20.0 0.00 0.04 0.00 30 1004.9
20260903194521 76 244 16.5 22.6 0.00 0.04 0.00 29 1004.8
20260903193101 75 245 15.6 26.1 0.00 0.04 0.00 30 1004.8
20260903191601 75 207 15.6 26.1 0.00 0.04 0.00 30 1004.9
20260903190041 75 212 13.0 25.2 0.00 0.04 0.00 31 1004.8
20260903184544 74 212 14.8 26.1 0.00 0.04 0.00 31 1004.8
20260903183023 74 237 18.2 24.3 0.00 0.04 0.00 31 1004.6
20260903181521 73 231 15.6 26.9 0.00 0.04 0.00 32 1004.8
20260903180003 73 232 13.0 19.1 0.00 0.04 0.00 35 1004.8
20260903174558 70 230 10.4 15.6 0.00 0.04 0.00 41 1005.0
20260903173035 67 232 7.0 9.6 0.00 0.04 0.00 46 1005.2
20260903171531 66 186 0.9 6.1 0.00 0.04 0.00 50 1005.3
20260903170009 63 171 2.6 5.2 0.00 0.04 0.00 54 1005.4
20260903164505 60 176 1.7 4.3 0.00 0.04 0.00 59 1005.4
20260903163047 59 202 1.7 3.5 0.00 0.04 0.04 61 1005.2
20260903161544 57 291 0.9 4.3 0.00 0.04 0.04 65 1005.3
20260903160051 56 182 1.7 3.5 0.00 0.04 0.04 67 1005.4
20260903154525 55 182 3.5 7.0 0.00 0.04 0.04 68 1005.4
20260903153008 54 184 7.8 9.6 0.00 0.04 0.04 71 1005.6
20260903151506 54 203 4.3 6.1 0.00 0.04 0.04 72 1005.4
20260903144555 51 195 3.5 5.2 0.00 0.04 0.04 74 1005.2
20260903143030 50 202 4.3 7.0 0.00 0.04 0.04 76 1005.2
20260903141529 49 209 5.2 7.0 0.00 0.04 0.04 77 1005.1
20260903140011 49 209 5.2 7.0 0.00 0.04 0.04 75 1004.9
20260903134510 49 191 6.1 8.7 0.00 0.04 0.04 77 1004.7
20260903133058 48 184 7.0 8.7 0.00 0.04 0.04 77 1004.5
20260903131550 47 192 6.1 7.8 0.00 0.04 0.04 77 1004.3
20260903130031 47 188 7.0 8.7 0.00 0.04 0.04 77 1004.4